User: anonymous   Login
Location: Niverville
(49.6028°N, 97.0419°W)
Time: 05:11:30
(UTC-06:00)
Language:

Cosmos 2237 Rocket - Orbit

View from above orbital plane
View from above orbital plane
View from above satellite
View from above satellite

Ground track
Ground track

The orbit data is extracted from the following two-line orbital elements,

1 22566U 93016B   15060.32470968 -.00000217  00000-0 -87352-4 0  9992
2 22566 071.0082 027.6608 0011741 319.3169 040.7076 14.14886374132619
Epoch (UTC): 01 March 2015 07:47:34
Eccentricity: 0.0011741
inclination: 71.0082°
perigee height: 834 km
apogee height: 851 km
right ascension of ascending node: 27.6608°
argument of perigee: 319.3169°
revolutions per day: 14.14886374
mean anomaly at epoch: 40.7076°
orbit number at epoch: 13261

The dashed part of the orbit path shows where the satellite is in the earth's shadow,  

DLR